Temp
-16 -16 -16 -16 -15 -15 -15 -15 -15 -15 -15 -15 -14 -13 -13 -13 -13 -13 -13 -13 -12 -13 -12 -12 -13 -14 -13 -12 -12 -12 -12 -12 -12 -12 -12 -12 -12 -12 -12 -11 -11 -11 -11 -11
-17 -17 -17 -17 -17 -16 -15 -15 -15 -15 -15 -15 -14 -14 -13 -14 -13 -13 -13 -13 -13 -13 -12 -13 -12 -12 -13 -13 -12 -12 -12 -12 -12 -12 -12 -12 -12 -12 -12 -12 -12 -11 -11 -11
-17 -17 -17 -17 -17 -16 -17 -16 -16 -16 -16 -16 -15 -14 -15 -15 -14 -13 -13 -13 -13 -13 -13 -13 -13 -13 -12 -13 -13 -12 -12 -12 -12 -12 -12 -12 -12 -12 -11 -12 -12 -12 -11 -11
-17 -17 -18 -18 -18 -17 -17 -17 -16 -16 -17 -17 -16 -15 -15 -15 -16 -15 -14 -14 -14 -14 -13 -13 -13 -13 -12 -12 -14 -13 -13 -12 -12 -13 -12 -12 -12 -12 -12 -12 -12 -12 -12 -11
-18 -19 -19 -19 -18 -18 -18 -17 -17 -17 -17 -17 -17 -17 -15 -16 -16 -16 -16 -15 -15 -15 -15 -14 -14 -13 -13 -13 -13 -14 -13 -12 -12 -13 -13 -13 -12 -12 -12 -12 -12 -12 -11 -12
-19 -19 -19 -19 -19 -18 -18 -18 -18 -18 -18 -17 -17 -17 -16 -16 -16 -16 -16 -16 -16 -15 -15 -14 -13 -13 -13 -13 -13 -13 -13 -13 -12 -13 -13 -13 -13 -13 -12 -13 -12 -12 -12 -12
-20 -20 -20 -19 -18 -18 -18 -18 -18 -18 -18 -18 -18 -18 -16 -16 -17 -16 -16 -16 -16 -15 -15 -15 -14 -13 -13 -13 -12 -13 -13 -13 -13 -12 -13 -13 -14 -13 -13 -13 -13 -12 -12 -12
-19 -19 -19 -19 -19 -18 -18 -19 -19 -18 -20 -20 -20 -18 -18 -18 -18 -18 -17 -16 -16 -16 -16 -15 -14 -13 -13 -14 -13 -13 -13 -14 -13 -13 -13 -13 -13 -13 -12 -12 -13 -13 -13 -13
-19 -19 -19 -19 -19 -19 -18 -18 -19 -18 -20 -20 -20 -21 -20 -20 -20 -20 -19 -19 -17 -17 -17 -15 -14 -13 -13 -13 -13 -13 -13 -13 -13 -14 -13 -13 -13 -12 -13 -13 -12 -13 -13 -13
-19 -19 -19 -20 -19 -18 -18 -18 -19 -19 -19 -19 -20 -20 -20 -20 -21 -21 -21 -21 -19 -17 -17 -17 -15 -14 -13 -13 -13 -13 -13 -13 -14 -14 -13 -13 -13 -13 -12 -13 -12 -12 -13 -13
-19 -19 -19 -19 -19 -18 -19 -19 -19 -19 -19 -20 -20 -20 -21 -21 -21 -21 -22 -22 -22 -20 -18 -17 -16 -15 -14 -13 -13 -13 -13 -13 -14 -14 -14 -14 -14 -13 -13 -13 -13 -13 -13 -13
-19 -19 -20 -19 -18 -18 -19 -19 -19 -20 -20 -20 -20 -20 -21 -21 -20 -21 -22 -22 -22 -21 -20 -17 -17 -16 -15 -13 -14 -14 -13 -13 -12 -13 -13 -14 -14 -13 -13 -13 -14 -14 -13 -13
-19 -19 -19 -18 -18 -19 -19 -19 -19 -19 -19 -20 -20 -20 -20 -21 -20 -21 -20 -20 -18 -19 -20 -19 -18 -17 -16 -14 -14 -14 -14 -14 -13 -13 -14 -14 -14 -14 -13 -13 -13 -14 -14 -13
-19 -20 -20 -18 -18 -18 -18 -19 -19 -18 -18 -19 -20 -20 -20 -20 -20 -19 -19 -17 -18 -18 -18 -18 -17 -17 -16 -15 -14 -14 -14 -13 -13 -14 -14 -14 -14 -14 -14 -14 -14 -13 -14 -14
-20 -20 -20 -19 -19 -18 -17 -18 -19 -18 -18 -18 -19 -20 -20 -20 -20 -19 -18 -17 -17 -17 -17 -17 -17 -17 -16 -15 -14 -14 -13 -13 -13 -13 -14 -14 -14 -14 -14 -14 -14 -14 -14 -14
-20 -20 -20 -19 -19 -18 -18 -17 -18 -18 -18 -18 -18 -19 -20 -19 -19 -19 -18 -17 -17 -16 -16 -16 -16 -16 -15 -15 -14 -14 -13 -14 -14 -14 -14 -14 -14 -14 -14 -14 -15 -14 -14 -15
-20 -20 -20 -20 -20 -19 -18 -18 -18 -17 -17 -18 -18 -19 -19 -19 -19 -18 -18 -17 -16 -16 -16 -16 -16 -15 -15 -15 -14 -14 -14 -14 -14 -14 -14 -14 -14 -14 -15 -14 -14 -15 -15 -14
-20 -21 -20 -20 -20 -19 -19 -18 -18 -18 -18 -18 -19 -19 -19 -19 -18 -18 -18 -17 -17 -17 -16 -16 -16 -16 -16 -15 -15 -15 -15 -15 -15 -14 -14 -14 -14 -14 -15 -15 -15 -15 -15 -15
-21 -21 -21 -20 -20 -20 -19 -18 -18 -18 -18 -18 -18 -18 -18 -18 -18 -18 -17 -17 -17 -17 -17 -17 -17 -16 -16 -16 -15 -15 -15 -15 -15 -15 -15 -15 -14 -15 -15 -15 -15 -15 -15 -15
-21 -21 -21 -21 -20 -20 -20 -20 -19 -19 -19 -19 -19 -19 -18 -19 -19 -18 -18 -18 -18 -17 -17 -17 -17 -17 -17 -16 -16 -15 -15 -15 -15 -14 -14 -14 -14 -14 -14 -15 -15 -15 -14 -15
-20 -21 -21 -21 -20 -20 -20 -20 -20 -20 -19 -19 -19 -19 -19 -19 -18 -18 -18 -18 -17 -17 -17 -17 -17 -17 -17 -17 -16 -16 -16 -16 -16 -15 -15 -15 -15 -15 -15 -15 -15 -15 -14 -14
-19 -19 -20 -20 -20 -21 -21 -21 -20 -20 -20 -20 -20 -20 -19 -19 -19 -19 -19 -19 -19 -19 -19 -18 -18 -18 -18 -18 -18 -18 -18 -17 -17 -17 -16 -16 -16 -16 -16 -15 -15 -15 -15 -15
-19 -19 -20 -20 -20 -21 -21 -21 -21 -21 -20 -20 -20 -20 -20 -20 -20 -20 -20 -20 -20 -19 -19 -19 -19 -19 -18 -18 -18 -18 -17 -17 -17 -17 -17 -16 -16 -16 -16 -17 -17 -17 -16 -16
-19 -19 -19 -19 -20 -20 -21 -21 -21 -21 -21 -21 -21 -21 -20 -20 -20 -20 -20 -20 -20 -20 -20 -20 -20 -19 -19 -18 -18 -18 -18 -18 -18 -17 -17 -17 -17 -17 -17 -17 -16 -16 -16 -16
-19 -19 -19 -19 -19 -19 -19 -20 -21 -21 -21 -21 -21 -20 -20 -20 -20 -20 -20 -20 -20 -20 -20 -20 -20 -20 -19 -19 -19 -19 -19 -19 -19 -19 -19 -19 -18 -18 -18 -18 -18 -18 -18 -17
-19 -19 -19 -19 -19 -19 -19 -19 -20 -20 -20 -20 -20 -20 -20 -20 -20 -20 -20 -20 -20 -20 -20 -20 -20 -20 -20 -20 -20 -20 -19 -19 -19 -19 -19 -19 -19 -19 -19 -19 -18 -18 -18 -18
Height
5682 5681 5681 5682 5683 5684 5686 5687 5688 5690 5692 5693 5697 5701 5706 5711 5715 5720 5724 5726 5731 5735 5741 5743 5747 5752 5758 5764 5768 5770 5774 5778 5782 5786 5790 5792 5797 5799 5802 5804 5807 5810 5813 5816
5677 5676 5676 5676 5676 5677 5677 5679 5681 5682 5681 5683 5686 5692 5697 5702 5706 5711 5714 5717 5720 5725 5729 5735 5740 5743 5749 5754 5759 5763 5767 5771 5776 5779 5782 5783 5786 5789 5793 5796 5800 5804 5807 5808
5669 5670 5669 5669 5669 5670 5670 5671 5672 5674 5673 5675 5676 5683 5686 5689 5694 5698 5705 5709 5710 5714 5719 5725 5729 5736 5741 5745 5751 5757 5760 5763 5768 5771 5773 5775 5778 5782 5788 5793 5796 5797 5798 5800
5663 5663 5663 5662 5661 5663 5663 5663 5664 5664 5665 5666 5668 5667 5676 5679 5685 5688 5692 5696 5700 5702 5708 5714 5718 5725 5731 5737 5741 5744 5749 5755 5759 5763 5767 5771 5773 5776 5781 5781 5784 5787 5790 5793
5660 5658 5657 5656 5657 5656 5657 5657 5657 5657 5656 5655 5660 5655 5666 5673 5675 5680 5679 5681 5684 5686 5689 5696 5703 5712 5719 5727 5731 5737 5743 5747 5751 5755 5761 5763 5766 5769 5770 5773 5776 5779 5782 5785
5655 5655 5654 5653 5652 5651 5651 5650 5648 5647 5645 5644 5646 5642 5653 5660 5661 5658 5660 5660 5664 5671 5677 5684 5692 5698 5708 5716 5721 5727 5735 5740 5745 5748 5753 5756 5760 5761 5763 5766 5768 5771 5773 5775
5652 5651 5650 5648 5647 5644 5643 5641 5639 5638 5634 5634 5631 5623 5643 5641 5635 5638 5639 5646 5649 5656 5665 5670 5678 5686 5694 5705 5713 5716 5725 5732 5736 5741 5745 5749 5752 5752 5754 5758 5760 5762 5764 5767
5649 5650 5645 5643 5640 5639 5638 5634 5631 5624 5619 5617 5615 5609 5617 5612 5618 5617 5616 5624 5632 5639 5651 5656 5663 5672 5681 5690 5701 5707 5714 5721 5726 5731 5737 5738 5743 5745 5747 5750 5752 5753 5755 5759
5646 5646 5642 5640 5635 5633 5630 5627 5625 5620 5616 5610 5608 5604 5602 5600 5600 5595 5598 5601 5613 5621 5628 5639 5651 5660 5668 5680 5689 5697 5703 5710 5714 5719 5726 5729 5734 5737 5741 5743 5742 5744 5746 5749
5644 5644 5640 5636 5633 5628 5628 5628 5624 5620 5616 5611 5608 5603 5600 5596 5589 5584 5581 5581 5583 5602 5611 5622 5633 5645 5659 5669 5678 5687 5695 5699 5707 5710 5715 5721 5726 5730 5730 5733 5736 5737 5739 5741
5641 5640 5638 5633 5630 5628 5627 5624 5621 5618 5614 5608 5604 5601 5595 5586 5578 5572 5570 5566 5569 5578 5594 5608 5618 5632 5646 5659 5669 5679 5686 5690 5697 5703 5706 5712 5717 5721 5723 5726 5728 5730 5729 5731
5637 5637 5634 5631 5629 5626 5625 5622 5618 5614 5611 5605 5600 5597 5588 5580 5576 5573 5571 5568 5571 5575 5585 5598 5611 5624 5635 5649 5661 5671 5677 5682 5687 5692 5696 5702 5708 5712 5715 5716 5719 5721 5722 5722
5636 5634 5632 5630 5629 5626 5621 5619 5615 5610 5607 5605 5599 5594 5587 5583 5580 5576 5575 5574 5577 5586 5590 5596 5609 5620 5629 5642 5653 5662 5670 5675 5679 5686 5690 5694 5699 5702 5706 5708 5709 5711 5713 5714
5635 5633 5629 5627 5625 5623 5618 5616 5613 5610 5605 5601 5599 5594 5590 5585 5585 5583 5582 5585 5587 5592 5596 5602 5611 5619 5626 5635 5646 5655 5661 5665 5669 5674 5679 5684 5688 5692 5695 5698 5699 5702 5706 5706
5634 5632 5628 5627 5624 5620 5618 5614 5612 5609 5607 5603 5599 5595 5593 5592 5590 5588 5589 5591 5591 5595 5599 5605 5611 5618 5623 5631 5640 5648 5654 5658 5661 5665 5668 5672 5677 5682 5685 5687 5690 5692 5695 5696
5631 5629 5627 5626 5623 5619 5618 5615 5613 5610 5608 5603 5600 5598 5595 5597 5595 5592 5593 5594 5592 5598 5601 5606 5611 5616 5621 5627 5633 5640 5645 5649 5652 5655 5657 5661 5664 5668 5672 5675 5677 5680 5683 5684
5629 5627 5626 5624 5621 5620 5620 5617 5615 5612 5604 5603 5601 5601 5601 5600 5598 5597 5596 5596 5596 5598 5604 5607 5610 5615 5619 5623 5627 5631 5636 5640 5642 5645 5647 5650 5653 5655 5658 5661 5664 5666 5669 5671
5627 5627 5625 5624 5621 5622 5621 5619 5617 5612 5610 5606 5604 5604 5604 5603 5602 5601 5600 5600 5601 5601 5603 5605 5608 5611 5615 5618 5621 5624 5628 5630 5634 5637 5638 5639 5640 5642 5645 5647 5650 5653 5655 5657
5625 5625 5625 5624 5622 5622 5620 5619 5617 5615 5613 5610 5609 5608 5607 5606 5604 5603 5603 5603 5602 5602 5603 5603 5605 5607 5610 5613 5616 5619 5621 5623 5625 5627 5630 5630 5631 5632 5634 5636 5638 5640 5641 5643
5624 5624 5625 5624 5623 5622 5620 5619 5617 5615 5615 5614 5612 5611 5610 5609 5608 5607 5606 5605 5604 5604 5604 5605 5605 5606 5607 5609 5609 5612 5614 5615 5616 5618 5620 5621 5622 5622 5621 5623 5625 5627 5629 5630
5625 5622 5623 5623 5622 5622 5620 5619 5617 5618 5619 5615 5615 5614 5613 5612 5611 5610 5608 5608 5606 5606 5606 5606 5606 5606 5606 5607 5608 5608 5610 5610 5610 5611 5611 5611 5611 5611 5610 5610 5611 5614 5615 5614
5627 5622 5620 5621 5621 5622 5620 5620 5620 5618 5616 5616 5616 5615 5614 5613 5612 5611 5610 5609 5609 5608 5608 5607 5607 5607 5606 5606 5605 5605 5605 5605 5604 5605 5605 5605 5604 5602 5602 5600 5600 5599 5599 5598
5628 5625 5621 5620 5619 5618 5618 5618 5618 5617 5616 5615 5615 5616 5614 5613 5612 5612 5612 5611 5610 5609 5607 5607 5606 5605 5604 5604 5605 5604 5603 5602 5602 5601 5602 5601 5601 5599 5598 5597 5595 5594 5592 5589
5629 5626 5623 5620 5618 5616 5615 5615 5615 5615 5615 5615 5615 5614 5614 5613 5611 5611 5610 5610 5609 5608 5606 5605 5604 5602 5602 5601 5600 5598 5598 5597 5596 5595 5594 5593 5591 5589 5588 5586 5585 5583 5580 5577
5630 5627 5624 5622 5619 5616 5614 5612 5612 5612 5612 5612 5612 5612 5611 5611 5611 5610 5609 5608 5607 5606 5605 5603 5602 5601 5599 5597 5595 5594 5593 5593 5591 5590 5588 5586 5584 5581 5578 5577 5575 5572 5570 5568
5629 5628 5625 5622 5620 5618 5617 5614 5613 5611 5609 5608 5608 5608 5607 5607 5607 5606 5606 5605 5604 5603 5601 5600 5599 5598 5596 5594 5593 5592 5590 5588 5586 5585 5582 5579 5576 5573 5571 5567 5562 5561 5558 5553
Wind_Speed
24 25 26 27 29 31 32 34 36 35 37 39 42 44 44 47 49 50 50 51 50 48 46 46 44 48 48 47 48 42 39 37 37 38 38 38 36 38 40 41 43 41 39 37
21 23 23 25 28 31 35 36 37 36 38 42 43 44 45 45 48 49 52 54 54 53 52 49 47 45 48 50 50 44 40 38 36 35 36 39 40 41 42 43 43 43 41 42
22 23 23 24 28 30 33 36 36 38 41 40 43 45 44 45 48 52 53 54 57 57 56 53 53 49 47 50 51 47 45 38 37 37 35 38 40 40 40 39 41 43 45 44
22 23 23 24 27 28 31 33 38 39 39 38 38 46 41 44 41 49 53 55 56 59 59 57 57 53 51 45 53 54 50 43 39 38 39 36 36 36 36 40 42 45 46 45
18 19 19 22 24 26 28 31 35 40 44 47 46 51 47 42 41 38 41 50 55 58 63 64 61 58 55 49 50 57 49 50 47 42 40 38 36 34 37 39 41 44 45 47
17 16 19 22 24 27 30 33 36 43 49 55 53 58 49 43 45 48 49 51 56 62 63 67 65 61 58 54 48 55 56 52 51 46 45 41 36 33 35 36 39 41 44 47
14 17 18 23 24 27 29 32 35 39 44 49 50 57 54 55 57 60 61 58 59 63 65 68 69 66 60 58 51 54 54 53 51 50 47 41 36 33 32 34 36 39 42 46
10 9 18 18 21 21 20 24 27 34 38 41 42 53 48 53 54 56 64 66 63 63 61 64 72 71 65 61 57 53 55 57 62 58 54 55 24 31 34 36 34 37 40 41
12 12 14 14 12 17 13 20 19 19 19 19 14 18 26 33 23 38 51 62 62 65 65 67 70 73 70 61 59 53 55 62 58 57 59 56 37 30 35 38 38 39 40 41
12 9 14 14 12 11 11 16 15 17 17 17 11 16 19 24 33 31 37 39 59 67 68 62 66 73 72 64 61 54 56 58 63 52 56 59 49 42 37 42 41 41 40 41
11 12 13 11 12 12 8 9 17 22 25 27 25 24 24 33 19 16 25 28 33 47 70 58 65 71 72 66 61 57 52 57 60 61 54 56 53 50 43 44 43 41 43 43
13 13 13 15 13 15 17 19 22 25 26 23 28 28 30 29 15 12 12 10 12 22 38 51 61 65 66 63 60 58 50 55 56 63 56 56 53 55 50 47 42 44 44 45
14 12 8 12 14 15 17 19 23 25 18 18 24 27 31 20 11 8 10 14 8 13 24 41 50 50 57 57 56 54 51 48 57 54 59 58 56 54 50 53 47 47 46 48
12 12 12 14 18 17 18 22 17 15 11 10 16 21 19 17 23 5 2 15 9 11 14 26 32 36 45 51 49 49 43 44 50 52 49 61 58 57 53 52 49 46 48 49
11 11 9 10 15 15 17 20 17 15 13 14 13 13 10 14 16 16 15 15 6 17 20 28 29 32 37 41 43 38 38 41 44 46 46 48 61 59 59 55 53 54 49 52
13 10 8 9 11 16 17 16 16 13 12 15 16 13 10 17 18 17 13 6 10 19 17 17 27 32 34 37 38 39 40 41 44 41 48 55 55 60 65 64 58 57 55 56
12 11 12 11 11 11 14 11 15 14 17 16 19 16 16 17 16 14 11 10 3 14 20 21 23 26 29 34 37 39 40 42 41 45 45 55 62 64 68 69 64 62 61 60
14 10 8 11 8 7 7 9 10 14 16 17 17 16 15 15 13 12 13 9 3 8 16 24 26 25 27 27 32 36 38 40 42 42 47 48 57 65 70 69 67 65 65 65
14 12 8 8 7 5 5 6 10 11 13 14 14 14 15 15 15 12 10 8 5 3 1 4 11 22 26 29 32 31 32 37 48 47 45 47 50 62 69 69 70 70 70 71
12 13 9 5 6 7 5 6 6 8 9 11 11 12 11 12 10 9 8 7 6 5 2 2 3 6 10 18 22 30 33 27 28 38 48 55 58 58 65 75 74 76 75 74
10 13 10 9 6 7 7 7 6 4 5 8 8 9 10 10 8 6 3 3 1 2 6 8 9 7 2 3 7 10 14 16 19 22 26 30 33 36 39 45 57 77 74 72
15 11 11 14 10 9 9 9 8 4 5 4 4 6 5 4 4 6 6 6 8 9 9 8 9 10 11 12 14 14 14 14 15 15 17 18 20 21 22 23 25 28 30 33
14 15 11 8 14 14 11 10 9 8 5 4 4 5 6 6 5 6 7 8 9 11 11 12 14 15 17 17 17 18 18 18 19 20 22 23 24 25 27 30 32 34 35 36
10 10 12 13 10 7 13 16 13 12 10 9 9 10 9 10 10 10 10 11 13 14 15 17 20 21 23 23 24 24 25 24 24 23 25 28 30 31 31 33 35 37 38 41
10 8 8 9 11 11 10 7 12 15 16 15 16 17 16 16 16 16 16 17 19 21 23 24 25 27 28 26 24 23 19 15 16 18 20 21 23 26 28 27 29 32 35 36
9 8 7 7 9 9 8 9 9 8 6 8 12 18 23 25 26 24 24 26 28 30 30 30 30 26 18 17 17 15 15 19 22 24 27 28 29 30 33 35 38 38 39 43
Wind_Direction
272 264 257 254 252 256 251 250 251 251 249 244 242 242 241 238 238 238 238 240 239 239 237 234 231 231 236 235 223 229 231 235 234 240 241 244 245 245 243 243 244 244 246 247
283 276 270 263 259 256 256 254 252 252 251 251 247 248 248 245 242 239 240 241 240 240 237 238 238 233 230 233 229 222 232 234 236 237 237 239 239 241 241 241 244 245 245 246
286 282 276 269 266 261 260 259 257 259 257 256 255 250 248 244 243 241 239 241 242 241 240 237 237 238 234 233 234 230 229 229 234 237 239 240 238 241 245 248 249 249 246 246
280 278 274 274 272 265 259 266 266 259 252 253 253 254 246 252 252 249 242 238 240 241 240 238 238 236 238 234 234 237 238 225 230 242 248 246 245 241 241 240 242 245 247 247
287 279 279 278 273 271 276 274 266 255 253 253 253 257 252 257 265 259 259 249 239 236 237 234 234 235 236 235 231 234 240 240 233 236 245 242 244 239 240 241 244 247 247 248
301 288 285 285 283 282 283 284 278 271 266 261 263 266 262 265 263 256 249 249 243 234 235 234 233 231 234 233 233 233 231 236 234 235 240 243 242 240 241 244 245 248 247 248
282 283 291 288 285 284 281 278 276 274 271 270 272 271 264 263 261 258 254 250 250 240 232 233 232 230 227 231 231 230 230 236 245 242 242 238 231 235 239 242 246 248 251 250
295 291 286 283 287 285 293 297 295 300 293 291 288 276 275 264 260 256 257 255 250 246 239 234 231 229 227 225 228 230 227 230 239 240 237 242 223 247 242 242 245 248 251 252
304 325 317 317 309 317 321 337 335 327 328 316 303 290 283 282 268 265 262 253 245 239 238 232 229 229 226 222 224 227 226 228 235 228 233 241 240 239 250 245 244 248 250 251
309 320 323 327 341 352 320 324 350 330 320 321 323 315 315 294 268 271 254 257 244 234 235 235 224 225 225 221 223 223 227 229 234 234 235 235 237 239 240 244 246 249 251 251
314 327 339 345 1 329 332 321 336 327 332 324 327 333 336 336 311 273 263 263 242 228 230 232 222 219 221 219 221 222 227 227 231 237 233 235 235 235 234 242 249 252 251 252
324 332 342 360 350 331 326 321 318 325 329 331 331 352 356 345 308 295 271 194 202 205 217 221 219 215 216 217 220 222 226 228 230 233 235 234 235 236 235 246 243 247 254 253
320 317 341 357 354 348 340 339 336 339 341 339 328 354 355 2 354 229 150 159 181 194 212 215 209 211 213 213 219 222 226 233 234 234 236 237 235 241 240 245 243 244 250 253
312 316 352 0 347 0 3 7 10 6 354 340 339 358 3 12 24 34 162 120 162 194 201 198 198 207 214 215 219 220 227 229 225 227 237 238 234 238 244 244 254 250 251 255
303 311 342 359 344 3 9 7 4 5 0 13 8 7 26 17 3 21 45 133 118 173 182 201 208 207 206 209 213 220 225 229 226 233 238 239 237 238 244 246 248 252 258 255
293 321 333 335 346 1 357 355 0 346 10 21 19 25 4 331 0 9 50 193 144 203 177 182 205 208 208 211 216 221 224 229 234 238 240 237 236 238 240 245 248 250 252 255
290 316 330 324 343 356 4 343 339 358 0 17 26 25 12 11 10 10 35 52 142 187 213 204 206 207 213 219 220 223 227 232 237 240 245 242 240 242 238 240 245 249 252 253
278 308 321 322 326 328 351 358 345 359 11 7 5 9 3 0 0 1 0 2 348 175 205 221 223 222 227 235 233 234 235 234 237 248 247 250 247 246 241 240 244 249 252 254
268 290 317 322 324 310 331 340 357 14 11 14 6 354 351 352 348 354 344 341 341 323 59 184 206 218 226 229 224 229 237 242 244 245 251 255 255 249 245 245 247 249 252 258
277 277 295 319 321 319 322 333 355 349 357 357 10 13 1 1 359 0 356 10 19 19 7 98 158 175 194 212 225 234 243 249 241 238 241 247 251 255 253 250 249 252 258 258
340 273 280 291 310 310 323 334 331 319 323 327 342 351 339 337 318 319 336 353 27 18 14 10 2 1 343 217 195 203 214 221 227 236 242 246 249 250 244 245 251 250 257 259
8 354 276 268 283 304 319 327 333 333 322 325 332 332 322 332 337 4 8 14 15 17 18 10 0 351 345 343 340 338 331 323 317 312 301 298 297 290 283 274 265 264 268 265
4 9 2 304 274 274 281 295 311 314 318 323 342 345 346 349 7 9 355 346 342 343 351 344 339 333 328 325 323 321 320 316 313 309 306 303 299 297 296 295 292 289 287 286
339 355 9 10 0 314 270 265 277 287 294 298 301 301 301 303 307 313 313 314 318 321 324 325 327 324 321 320 321 325 326 323 318 313 309 306 305 302 300 298 295 294 293 291
319 332 0 9 19 20 15 331 278 273 279 286 290 292 296 299 299 300 303 307 310 313 316 318 320 324 325 327 326 323 320 318 318 318 315 316 318 318 316 313 309 306 303 299
318 317 326 341 352 8 19 22 25 20 350 317 295 285 283 282 287 292 296 299 301 304 305 308 311 317 326 331 329 327 322 321 320 319 320 321 321 320 318 316 312 309 308 308